Content
SEND FEEDBACK

Daily
Averages
Monthly
Summary
United Kingdom

LONDON, ENGLAND


Home > Europe > United Kingdom > England
Elevation: 61 meters     Latitude: 51 09N     Longitude: 000 11W

WEATHER
 
SELECT A DAY
Number of Records: 293,844;   Date Range: 7/1/96 - 8/28/14
 
SHARE

PRINT THIS DATA

[ ← Previous Day ]
WEATHER ALMANAC - 20 MARCH, 2013
[ Next Day → ]
[ °F ]   °C
Weather ElementAverageHighLow
Temperature3.8 °C7 °C (10:50 am)1 °C (12:50 am)
Dewpoint1.6 °C3 °C (8:50 am)0 °C (12:50 am)
Humidity86.7 %100 % (5:20 am)66 % (12:20 pm)
Barometer1006.8 hPa1016.3 hPa (10:20 pm)999 hPa (12:50 am)
Wind Speed11.4 km/h16.7 km/h (12:50 pm)
Wind Gust31.5 km/h (12:20 pm)
Weather ElementAverage
Visibility5.8 km
Wind DirectionESE (121.1 °)

Weather ElementTotal
Precipitation---
Heating Degree Days14.3 (Base 18.3)
Averaged from 47 records on 20 March, 2013
WEATHER CONDITIONS BREAKOUT
WIND DIRECTION BREAKOUT
WEATHER BY HOUR - 20 MARCH, 2013
[ °F ]   °C
Local TimeTemperatureDewpointHumidityBarometerVisibilityWind DirectionWind SpeedGust SpeedPrecipitationEventsConditions
12:50 AM1 °C0 °C93 %999 hPa5 kmNE (40°)9.3 km/hHaze
1:20 AM1 °C0 °C93 %999 hPa4 kmNNE (30°)13 km/hHaze
1:50 AM2 °C1 °C93 %999 hPa4 kmNE (40°)13 km/hMostly Cloudy
2:20 AM2 °C1 °C93 %999 hPa4.5 kmNNE (30°)11.1 km/hHaze
2:50 AM2 °C1 °C93 %999 hPa6 kmNE (40°)11.1 km/hMostly Cloudy
3:20 AM2 °C1 °C93 %999 hPa6 kmNNE (20°)14.8 km/hMostly Cloudy
3:50 AM2 °C1 °C93 %999 hPa5 kmNNE (30°)13 km/hHaze
4:20 AM2 °C1 °C93 %1000 hPa5 kmNorth (350°)14.8 km/hHaze
4:50 AM2 °C1 °C93 %1000 hPa5 kmNorth (360°)9.3 km/hHaze
5:20 AM1 °C1 °C100 %1000 hPa5 kmNNW (330°)7.4 km/hHaze
5:50 AM1 °C1 °C100 %1000 hPaWNW (290°)5.6 km/hHaze
6:20 AM1 °C0 °C93 %1001 hPa5 kmNNW (330°)7.4 km/hHaze
6:50 AM2 °C1 °C93 %1001 hPa4 kmNW (310°)11.1 km/hHaze
7:20 AM2 °C2 °C100 %1002 hPa3.1 kmNW (320°)9.3 km/hHaze
7:50 AM3 °C2 °C93 %1002 hPa3.1 kmNNW (330°)11.1 km/hHaze
8:20 AM3 °C2 °C93 %1002 hPa3.5 kmNorth (360°)9.3 km/hHaze
8:50 AM4 °C3 °C93 %1003 hPa5 kmNorth (10°)13 km/hHaze
9:20 AM5 °C2 °C81 %1003 hPa10 kmNE (40°)14.8 km/hScattered Clouds
9:50 AM5 °C2 °C81 %1004.1 hPa10 kmNE (40°)14.8 km/hMostly Cloudy
10:20 AM6 °C2 °C76 %1005.1 hPa10 kmNNE (30°)14.8 km/hScattered Clouds
10:50 AM7 °C2 °C71 %1005.1 hPa10 kmNNE (20°)14.8 km/hScattered Clouds
11:20 AM7 °C2 °C71 %1005.1 hPa10 kmVariable13 km/hMostly Cloudy
11:50 AM6 °C1 °C70 %1006.1 hPa10 kmNNE (20°)11.1 km/hMostly Cloudy
12:20 PM7 °C1 °C66 %1007.1 hPa10 kmNorth (360°)11.1 km/h31.5 km/hMostly Cloudy
12:50 PM6 °C2 °C76 %1007.1 hPa6 kmNNW (330°)16.7 km/hRainLight Rain Showers
1:20 PM6 °C2 °C76 %1007.1 hPa6 kmNW (320°)13 km/hMostly Cloudy
1:50 PM7 °C2 °C71 %1008.1 hPa6.9 kmVariable13 km/hScattered Clouds
2:20 PM7 °C2 °C71 %1008.1 hPa6 kmNE (50°)14.8 km/hMostly Cloudy
2:50 PM6 °C2 °C76 %1009.1 hPa6 kmNE (50°)13 km/hScattered Clouds
3:20 PM6 °C2 °C76 %1009.1 hPa6 kmNE (40°)11.1 km/hRainLight Rain
3:50 PM5 °C2 °C81 %1010.2 hPa6 kmENE (60°)11.1 km/hRainLight Rain
4:20 PM5 °C3 °C87 %1010.2 hPa5 kmNNE (30°)9.3 km/hRainLight Rain
4:50 PM5 °C3 °C87 %1011.2 hPaNNE (20°)7.4 km/hHaze
5:20 PM5 °C3 °C87 %1011.2 hPa4 kmNE (40°)9.3 km/hHaze
5:50 PM4 °C3 °C93 %1012.2 hPa4 kmENE (70°)13 km/hLight Drizzle
6:20 PM4 °C3 °C93 %1012.2 hPa3.5 kmEast (80°)11.1 km/hLight Drizzle
6:50 PM4 °C3 °C93 %1013.2 hPa3.1 kmENE (70°)13 km/hLight Drizzle
7:20 PM4 °C2 °C87 %1014.2 hPa3.1 kmENE (70°)11.1 km/hHaze
7:50 PM3 °C2 °C93 %1014.2 hPa3.5 kmEast (80°)11.1 km/hHaze
8:20 PM3 °C2 °C93 %1014.2 hPa6 kmEast (80°)11.1 km/hMostly Cloudy
8:50 PM3 °C2 °C93 %1014.2 hPa6 kmEast (80°)13 km/hMostly Cloudy
9:20 PM3 °C1 °C87 %1015.2 hPa6.9 kmENE (70°)13 km/hMostly Cloudy
9:50 PM3 °C1 °C87 %1015.2 hPa6.9 kmEast (80°)11.1 km/hMostly Cloudy
10:20 PM3 °C1 °C87 %1016.3 hPa6.9 kmEast (80°)9.3 km/hMostly Cloudy
10:50 PM3 °C1 °C87 %1016.3 hPa6 kmEast (80°)7.4 km/hMostly Cloudy
11:20 PM3 °C1 °C87 %1016.3 hPa6 kmEast (90°)11.1 km/hMostly Cloudy
11:50 PM3 °C1 °C87 %1015.2 hPa6 kmEast (90°)7.4 km/hMostly Cloudy
Hourly data recorded from EGKK, located 0 kilometers away from London, England







STORIES FROM OUR PARTNERS